Location: Alvediston
(51.0078°N, 2.0364°W)
Time: 20:36:10
(UTC+00:00)

Resurs 01 Rocket - Pass Details

Date: 27 February 2020
Orbit: 634 x 645 km, 98.0° (Epoch: 03 April)

Event Time Altitude Azimuth Distance (km) Brightness Sun altitude
Exits shadow 20:48:55 46° 316° (NW) 869 2.6 -29.1°
Drops below altitude 10° 20:52:13 10° 340° (NNW) 2,043 4.7 -29.6°
Sets 20:54:27 0° 344° (NNW) 2,956 5.6 -29.9°
